Regional Weather Roundup
Issued by NWS Green Bay, WI

Home | Current Version | Previous Version | Text Only | Print | Product List | Glossary On
Versions: 1 2 3 4 5 6 7 8 9 10 11 12 13 14 15 16 17 18 19 20 21 22 23 24 25 26 27 28 29 30 31 32 33 34 35 36 37 38 39 40 41 42 43 44 45 46 47 48 49 50
000
ASUS43 KGRB 250911
RWRGRB

NORTH-CENTRAL AND NORTHEAST WISCONSIN REGIONAL WEATHER ROUNDUP
NATIONAL WEATHER SERVICE GREEN BAY WI
400 AM CDT TUE APR 25 2017

WIZ005-009-010>012-018-019-251000-
NORTH CENTRAL WISCONSIN

CITY           SKY/WX    TMP DP  RH WIND       PRES   REMARKS
IRONWOOD       CLOUDY    55  32  41 S9G18     29.64R
MANITOWISH WTR CLOUDY    49  33  54 SE3       29.65F
ARBOR VITAE    CLOUDY    52  36  54 SE9       29.65F
EAGLE RIVER    MOCLDY    46  31  55 SE6       29.68F
LAND O LAKES   MOCLDY    46  32  57 SE6       29.70F
RHINELANDER    PTCLDY    50  36  58 E9        29.67F
PHILLIPS       CLOUDY    49  35  58 E5        29.62F
ANTIGO         CLOUDY    46  34  62 SE13      29.70S
TOMAHAWK       PTCLDY    51  32  48 SE3       29.66S
MERRILL        MOCLDY    53  33  46 SE10      29.66F
$$

WIZ013-073-251000-
NORTHEAST WISCONSIN

CITY           SKY/WX    TMP DP  RH WIND       PRES   REMARKS
IRON MOUNTAIN  CLOUDY    43  35  73 SE6       29.73F
MARINETTE      CLOUDY    51  39  63 S7        29.76R
OCONTO         PTCLDY    49  36  61 SE8       29.74F
$$

WIZ017-030-035>037-045-251000-
CENTRAL WISCONSIN

CITY           SKY/WX    TMP DP  RH WIND       PRES   REMARKS
MEDFORD        MOCLDY    54  33  45 SE8       29.62F
WAUSAU         CLOUDY    54  33  45 E7        29.65F
MOSINEE        CLOUDY    55  30  38 SE10G18   29.66F
MARSHFIELD     CLOUDY    56  32  40 SE10      29.62F
WISC RAPIDS    PTCLDY    57  33  40 SE7       29.65F
STEVENS POINT  CLOUDY    55  31  40 SE8       29.67F
WAUPACA        CLOUDY    57  33  40 SE7       29.70S
SHAWANO        CLOUDY    54  35  48 SE7       29.71F
CLINTONVILLE   CLOUDY    54  32  43 SE7       29.70F
WAUTOMA        CLOUDY    57  35  43 SE7       29.69S
$$

WIZ038-039-048-051-251000-
FOX VALLEY

CITY           SKY/WX    TMP DP  RH WIND       PRES   REMARKS
NWS GREEN BAY  CLEAR     51  37  58 E8        29.73F
APPLETON       CLOUDY    52  32  46 E7        29.69F
OSHKOSH        PTCLDY    54  35  48 SE9       29.70F
FOND DU LAC    CLOUDY    54  34  46 SE14      29.70F
$$

WIZ022-050-052-251000-
EAST CENTRAL WISCONSIN

CITY           SKY/WX    TMP DP  RH WIND       PRES   REMARKS
EPHRAIM        FAIR      51  40  67 S8        29.76R
WASHINGTON ISL FAIR      47  38  72 SE10G17   29.73F
STURGEON BAY   CLOUDY    52  39  61 SE10      29.77R
MANITOWOC      MOCLDY    49  36  61 S12       29.75F
SHEBOYGAN      CLOUDY    50  37  61 S6        29.74F
$$

LMZ563-521-522-541>543-251000-
LAKESHORE

STATION/POSITION TIME  TEMP    WIND        PRES    VSBY  WAVE
                       AIR SEA DIR/SP/G                  HT/PER
                 (UTC) (F)     (DEG/KT/KT) (MB)    (MI)  (FT/S)
SHEBOYGAN LKSHOR 0900   49     180/ 10/ 11 1007.4R
KEWAUNEE LKSHORE 0848   47      40/  4/  4 1007.7S
NORTHPORT PIER   0840   43     150/  6/ 10 1007.8F
N MID LAKE BUOY  0750   42 37  110/  8/  8 1010.0          2/ 4
SISTER BAY LKSHO 0806   52     150/  9/ 11   N/A
CHAMBERS ISLAND  0840   53     130/  8/ 15 1007.1R
MENOMINEE LKSHOR 0848   49     150/ 13/ 17 1006.6R
$$




USA.gov is the U.S. government's official web portal to all federal, state and local government web resources and services.